Retour au catalogue

STARLINK-35304

ActifCommunicationsVLEO
NORAD 66249·PAYLOAD·🇺🇸 United States

Lancé Oct 29, 2025 depuis Cape Canaveral Space Force Station

Loading…

Prochains Passages (prochaines 24 heures)

TLE

FraisSource: CelesTrak SupGP

Époque: Sep 14, 2026, 21:13 UTC

1 66249C 25245R   26257.88451389 -.00028742  00000+0 -92504-3 0  2577
2 66249  53.1561 124.0820 0001137  88.1147  50.6987 15.31689902    18

Suivez STARLINK-35304 en temps réel avec AllMySat

Download on the App Store